KF0PEC-15 Weather Reports


time (UTC)temp
F
wind
direction
speed
knots
gust
knots
rain 1hr
in
rain 24hr
in
rain mn
in
humidity
%
barometer
mb
20260906202800 88 116 1.7 6.1 0.00 0.00 0.00 36 1004.4
20260906181120 86 78 1.7 3.5 0.00 0.00 0.00 35 1006.9
20260906180120 86 216 1.7 4.3 0.00 0.00 0.00 36 1007.3
20260906175306 85 146 1.7 3.5 0.00 0.00 0.00 37 1007.5
20260906174313 85 199 1.7 5.2 0.00 0.00 0.00 36 1007.9
20260906173410 84 188 0.9 3.5 0.00 0.00 0.00 36 1008.3
20260906172600 84 134 0.9 4.3 0.00 0.00 0.00 36 1008.6
20260906171723 83 154 0.9 4.3 0.00 0.00 0.00 36 1009.0
20260906170820 85 73 0.0 1.7 0.00 0.00 0.00 34 1008.1
20260906165903 85 165 0.9 2.6 0.00 0.00 0.00 34 1008.4
20260906164950 84 142 0.9 3.5 0.00 0.00 0.00 34 1008.7
20260906163955 84 177 1.7 4.3 0.00 0.00 0.00 34 1008.6
20260906163040 84 146 0.9 3.5 0.00 0.00 0.00 34 1008.8
20260906162120 84 175 0.9 4.3 0.00 0.00 0.00 34 1008.4
20260906161250 83 173 0.9 3.5 0.00 0.00 0.00 36 1009.0
20260906160435 82 139 0.9 3.5 0.00 0.00 0.00 35 1009.1
20260906155523 81 45 1.7 3.5 0.00 0.00 0.00 36 1009.4
20260906154623 81 62 0.9 1.7 0.00 0.00 0.00 36 1009.5
20260906153745 81 77 0.0 1.7 0.00 0.00 0.00 37 1009.6
20260906152820 80 59 0.9 1.7 0.00 0.00 0.00 38 1010.0
20260906151930 78 54 0.9 2.6 0.00 0.00 0.00 39 1010.6
20260906151130 78 50 0.9 2.6 0.00 0.00 0.00 40 1011.0
20260906150200 76 8 0.9 1.7 0.00 0.00 0.00 43 1011.8
20260906145323 73 33 0.9 1.7 0.00 0.00 0.00 45 1012.6
20260906144515 71 35 0.9 1.7 0.00 0.00 0.00 48 1013.6
20260906143543 71 7 0.9 2.6 0.00 0.00 0.00 49 1013.8
20260906142730 69 18 0.9 2.6 0.00 0.00 0.00 50 1014.4
20260906141930 68 22 0.9 3.5 0.00 0.00 0.00 52 1014.7
20260906141023 65 15 0.9 2.6 0.00 0.00 0.00 60 1015.9
20260906140130 64 22 1.7 2.6 0.00 0.00 0.00 63 1016.4
20260906135235 62 15 0.0 1.7 0.00 0.00 0.00 68 1017.3
20260906134410 61 0.0 0.9 0.00 0.00 0.00 74 1017.7
20260906133610 60 49 0.0 0.9 0.00 0.00 0.00 74 1017.9
20260906132650 59 0.0 0.0 0.00 0.00 0.00 73 1018.1
20260906131820 58 36 0.0 0.9 0.00 0.00 0.00 76 1018.4
20260906130843 58 30 0.0 1.7 0.00 0.00 0.00 76 1018.5
20260906125855 58 0.0 0.0 0.00 0.00 0.00 76 1018.6
20260906124920 58 353 0.0 1.7 0.00 0.00 0.00 76 1018.6
20260906124045 58 0.0 0.9 0.00 0.00 0.00 75 1018.6
20260906123146 59 0.0 0.0 0.00 0.00 0.00 75 1018.2
20260906122320 59 0.0 0.0 0.00 0.00 0.00 72 1018.0
20260906121410 60 0.0 0.0 0.00 0.00 0.00 70 1017.7
20260906120423 60 0.0 0.0 0.00 0.00 0.00 70 1017.5
20260906115623 60 72 0.0 0.9 0.00 0.00 0.00 70 1017.4
20260906114630 61 0.0 0.9 0.00 0.00 0.00 69 1017.1
20260906113745 60 0.0 0.0 0.00 0.00 0.00 71 1017.1
20260906112843 61 0.0 0.0 0.00 0.00 0.00 73 1017.1
20260906111923 61 338 0.0 1.7 0.00 0.00 0.00 73 1016.9
20260906111020 61 0.0 0.9 0.00 0.00 0.00 74 1016.8
20260906110120 61 0.0 0.0 0.00 0.00 0.00 74 1016.7
20260906105135 61 0.0 0.0 0.00 0.00 0.00 74 1016.7
20260906104150 61 79 0.0 0.9 0.00 0.00 0.00 73 1016.4
20260906103305 62 0.0 0.0 0.00 0.00 0.00 74 1016.4
20260906102500 62 9 0.0 0.9 0.00 0.00 0.00 74 1016.3
20260906101613 62 4 0.0 1.7 0.00 0.00 0.00 74 1016.5
20260906100730 61 0.0 0.0 0.00 0.00 0.00 76 1016.8
20260906095840 61 5 0.0 0.9 0.00 0.00 0.00 76 1017.2
20260906094955 61 0.0 0.0 0.00 0.00 0.00 76 1017.1
20260906094020 62 0.0 0.9 0.00 0.00 0.00 75 1016.7
20260906093115 62 0.0 0.0 0.00 0.00 0.00 75 1016.7
20260906092143 62 8 0.0 0.9 0.00 0.00 0.00 74 1016.4
20260906091235 62 19 0.0 0.9 0.00 0.00 0.00 74 1016.3
20260906090335 62 3 0.0 1.7 0.00 0.00 0.00 74 1016.2
20260906085520 62 360 0.9 1.7 0.00 0.00 0.00 74 1016.4
20260906084530 62 38 0.0 0.9 0.00 0.00 0.00 75 1016.4
20260906083603 62 0.0 0.0 0.00 0.00 0.00 74 1016.6
20260906082655 62 0.0 0.0 0.00 0.00 0.00 74 1016.2
20260906081723 62 0.0 0.9 0.00 0.00 0.00 74 1016.4
20260906080923 63 36 0.0 1.7 0.00 0.00 0.00 73 1016.0
20260906080123 63 33 0.9 1.7 0.00 0.00 0.00 72 1016.0
20260906075243 63 0.0 0.9 0.00 0.00 0.00 71 1016.2
20260906074320 64 2 0.0 0.9 0.00 0.00 0.00 70 1015.9
20260906073342 64 39 0.0 1.7 0.00 0.00 0.00 70 1016.0
20260906072540 64 0.0 0.9 0.00 0.00 0.00 69 1015.8
20260906071703 65 6 1.7 3.5 0.00 0.00 0.00 68 1015.7
20260906070750 64 9 1.7 3.5 0.00 0.00 0.00 69 1015.9
20260906065815 64 358 0.9 2.6 0.00 0.00 0.00 70 1016.1
20260906064921 64 358 0.0 0.9 0.00 0.00 0.00 72 1016.2
20260906063923 63 0.0 0.9 0.00 0.00 0.00 72 1016.5
20260906063035 64 41 0.0 0.9 0.00 0.00 0.00 72 1016.2
20260906062110 64 0.0 0.9 0.00 0.00 0.00 71 1015.8
20260906061140 65 3 0.9 1.7 0.00 0.00 0.00 70 1015.7
20260906060250 64 0.0 0.0 0.00 0.00 0.00 71 1015.5
20260906055250 65 0.0 0.0 0.00 0.00 0.00 71 1015.3
20260906054410 65 0.0 0.0 0.00 0.00 0.00 70 1015.0
20260906053500 66 336 0.0 0.9 0.00 0.00 0.00 70 1014.8
20260906052515 66 0.0 0.0 0.00 0.00 0.00 69 1014.7
20260906051625 66 0.0 0.0 0.00 0.00 0.00 69 1014.6
20260906050703 67 0.0 0.0 0.00 0.00 0.00 67 1014.3
20260906045830 67 44 0.0 0.9 0.00 0.00 0.00 66 1014.4
20260906044915 67 0.0 0.0 0.00 0.00 0.00 63 1014.3
20260906044003 68 0.0 0.0 0.00 0.00 0.00 63 1014.2
20260906043103 68 0.0 0.9 0.00 0.00 0.00 64 1014.1
20260906042300 69 0.0 0.9 0.00 0.00 0.00 62 1013.9
20260906041335 69 0.0 0.9 0.00 0.00 0.00 60 1013.5
20260906040430 70 39 0.0 0.9 0.00 0.00 0.00 58 1013.4
20260906035615 70 0.0 0.0 0.00 0.00 0.00 57 1013.2
20260906034650 71 0.0 0.0 0.00 0.00 0.00 54 1012.9
20260906033823 72 0.0 0.0 0.00 0.00 0.00 52 1012.7
20260906032830 73 0.0 0.9 0.00 0.00 0.00 51 1012.1
20260906031915 73 295 0.0 0.9 0.00 0.00 0.00 57 1011.8
20260906030926 74 0.0 0.9 0.00 0.00 0.00 56 1011.3
20260906025940 74 78 0.0 1.7 0.00 0.00 0.00 56 1011.0
20260906024950 73 278 0.9 1.7 0.00 0.00 0.00 54 1011.4
20260906024010 73 313 0.0 0.9 0.00 0.00 0.00 51 1010.9
20260906023030 72 20 0.9 2.6 0.00 0.00 0.00 49 1011.4
20260906022105 72 140 0.0 1.7 0.00 0.00 0.00 49 1011.2
20260906021123 73 0.0 0.0 0.00 0.00 0.00 46 1010.2
20260906020303 74 341 0.0 0.9 0.00 0.00 0.00 45 1009.5
20260906015330 75 1 0.0 0.9 0.00 0.00 0.00 44 1009.2
20260906014440 76 0.0 0.0 0.00 0.00 0.00 44 1008.9
20260906013630 76 0.0 0.0 0.00 0.00 0.00 44 1008.7
20260906012643 78 0.0 0.0 0.00 0.00 0.00 42 1008.1
20260906011740 79 314 0.0 0.9 0.00 0.00 0.00 41 1007.7
20260906010855 80 299 0.0 0.9 0.00 0.00 0.00 38 1007.3
20260906005905 81 0.0 0.9 0.00 0.00 0.00 36 1006.7
20260906005033 82 0.0 0.0 0.00 0.00 0.00 36 1006.5
20260906004054 83 0.0 0.0 0.00 0.00 0.00 36 1006.3
20260906003220 83 0.0 0.0 0.00 0.00 0.00 34 1006.0
20260906002300 84 0.0 0.0 0.00 0.00 0.00 33 1005.7
20260906001315 84 325 0.0 1.7 0.00 0.00 0.00 33 1005.5
20260906000503 84 325 0.0 0.9 0.00 0.00 0.00 33 1005.6
20260905235603 84 321 0.0 0.9 0.00 0.00 0.00 33 1005.6
20260905234803 85 319 0.0 1.7 0.00 0.00 0.00 32 1005.5
20260905233840 85 246 0.0 0.9 0.00 0.00 0.00 32 1005.4
20260905232925 84 0.0 0.9 0.00 0.00 0.00 31 1005.4
20260905231940 84 7 0.9 1.7 0.00 0.00 0.00 31 1005.5
20260905231043 85 0.0 0.9 0.00 0.00 0.00 31 1005.3
20260905230140 85 9 0.9 3.5 0.00 0.00 0.00 30 1005.0
20260905225143 85 342 0.9 2.6 0.00 0.00 0.00 31 1005.4
20260905224321 84 354 0.9 1.7 0.00 0.00 0.00 30 1005.8
20260905223350 85 351 0.9 2.6 0.00 0.00 0.00 30 1005.4
20260905222523 86 358 0.9 4.3 0.00 0.00 0.00 30 1005.0
20260905221555 84 360 2.6 4.3 0.00 0.00 0.00 30 1005.8
20260905220755 84 351 0.9 2.6 0.00 0.00 0.00 31 1005.8
20260905215943 84 12 0.0 1.7 0.00 0.00 0.00 33 1006.1